Barcelona Aeropuerto

latitud = 41° 17' 34''N | longitud = 002° 04' 12''E
4 metros sobre el nivel del mar | datos mensuales

Fecha, hora, temperatura, viento dirección y velocidad, humedad y presión.

  • 16-08-2018 02:00:00 | 25.30°C | Norte |6.00 km/h | 73.00% | 1016.40 hPa
  • 16-08-2018 01:00:00 | 25.70°C | Norte |8.00 km/h | 71.00% | 1016.70 hPa
  • 16-08-2018 00:00:00 | 26.20°C | Oeste |5.00 km/h | 72.00% | 1016.90 hPa
  • 15-08-2018 23:00:00 | 26.70°C | Sur |11.00 km/h | 69.00% | 1016.80 hPa
  • 15-08-2018 22:00:00 | 26.80°C | Sur |9.00 km/h | 68.00% | 1016.80 hPa
  • 15-08-2018 21:00:00 | 27.20°C | Sur |10.00 km/h | 65.00% | 1016.20 hPa
  • 15-08-2018 20:00:00 | 27.60°C | Sudoeste |14.00 km/h | 63.00% | 1016.00 hPa
  • 15-08-2018 19:00:00 | 28.60°C | Sudoeste |20.00 km/h | 58.00% | 1016.00 hPa
  • 15-08-2018 18:00:00 | 28.70°C | Sudoeste |22.00 km/h | 57.00% | 1016.10 hPa
  • 15-08-2018 17:00:00 | 28.80°C | Sudoeste |23.00 km/h | 56.00% | 1016.30 hPa
  • 15-08-2018 16:00:00 | 29.10°C | Sudoeste |19.00 km/h | 53.00% | 1016.70 hPa
  • 15-08-2018 15:00:00 | 28.70°C | Sur |21.00 km/h | 56.00% | 1017.20 hPa
  • 15-08-2018 14:00:00 | 28.20°C | Sur |15.00 km/h | 62.00% | 1017.50 hPa
  • 15-08-2018 13:00:00 | 27.60°C | Sur |15.00 km/h | 60.00% | 1017.70 hPa
  • 15-08-2018 12:00:00 | 27.50°C | Sudeste |15.00 km/h | 59.00% | 1017.80 hPa
  • 15-08-2018 11:00:00 | 27.90°C | Nordeste |8.00 km/h | 47.00% | 1017.90 hPa
  • 15-08-2018 10:00:00 | 25.50°C | Norte |22.00 km/h | 48.00% | 1017.80 hPa
  • 15-08-2018 09:00:00 | 24.10°C | Norte |19.00 km/h | 55.00% | 1017.80 hPa
  • 15-08-2018 08:00:00 | 23.90°C | Norte |15.00 km/h | 64.00% | 1017.50 hPa
  • 15-08-2018 07:00:00 | 23.80°C | Norte |14.00 km/h | 77.00% | 1017.20 hPa
  • 15-08-2018 06:00:00 | 24.10°C | Norte |10.00 km/h | 75.00% | 1017.10 hPa
  • 15-08-2018 05:00:00 | 23.60°C | Noroeste |5.00 km/h | 77.00% | 1017.30 hPa
  • 15-08-2018 04:00:00 | 23.80°C | Norte |9.00 km/h | 75.00% | 1017.30 hPa
  • 15-08-2018 03:00:00 | 24.40°C | Norte |5.00 km/h | 73.00% | 1017.30 hPa